SKW5484 KSAN-KLAX

Flight info

Callsign SKW5484
Flight time N/A
Altitude 10000
Route CWARD2 SLI
Aircraft E75L/M-SDE3GILORVW/S

Departure

Time 2026-04-30 22:20
Airport San Diego International Airport (KSAN)

Arrival

Time N/A
Airport Los Angeles International Airport (KLAX)
Time Latitude Longitude Altitude Speed Heading
2026-04-30 22:02 32.73407 -117.20080 24 ft 0 kts 196°
2026-04-30 22:03 32.73408 -117.20080 24 ft 0 kts 196°
2026-04-30 22:13 32.73427 -117.20073 25 ft 4 kts 197°
2026-04-30 22:13 32.73453 -117.20063 24 ft 4 kts 198°
2026-04-30 22:14 32.73478 -117.20053 24 ft 4 kts 197°
2026-04-30 22:14 32.73504 -117.20047 25 ft 4 kts 173°
2026-04-30 22:14 32.73516 -117.20056 26 ft 0 kts 105°
2026-04-30 22:16 32.73513 -117.20043 25 ft 5 kts 105°
2026-04-30 22:17 32.73424 -117.19673 25 ft 26 kts 105°
2026-04-30 22:17 32.73368 -117.19440 25 ft 33 kts 105°
2026-04-30 22:17 32.73224 -117.18846 25 ft 39 kts 106°
2026-04-30 22:18 32.73144 -117.18540 24 ft 39 kts 105°
2026-04-30 22:18 32.73061 -117.18167 19 ft 4 kts 96°
2026-04-30 22:19 32.73116 -117.18111 19 ft 8 kts
2026-04-30 22:19 32.73159 -117.18144 20 ft 7 kts 281°
2026-04-30 22:19 32.73438 -117.19339 24 ft 145 kts 284°
2026-04-30 22:20 32.73793 -117.20639 490 ft 172 kts 288°
2026-04-30 22:20 32.74757 -117.23299 2261 ft 203 kts 303°
2026-04-30 22:20 32.75601 -117.24650 3336 ft 199 kts 307°
2026-04-30 22:21 32.76424 -117.25910 4627 ft 188 kts 309°
2026-04-30 22:21 32.77203 -117.27125 5707 ft 183 kts 308°
2026-04-30 22:21 32.77930 -117.28352 6611 ft 182 kts 307°
2026-04-30 22:21 32.78647 -117.29600 7346 ft 185 kts 307°
2026-04-30 22:22 32.79369 -117.30868 8089 ft 187 kts 307°
2026-04-30 22:22 32.80132 -117.32130 8814 ft 189 kts 310°
2026-04-30 22:22 32.80932 -117.33375 9527 ft 191 kts 310°
2026-04-30 22:22 32.81777 -117.34672 9927 ft 213 kts 310°
2026-04-30 22:23 32.82763 -117.36181 10051 ft 248 kts 310°
2026-04-30 22:23 32.83902 -117.37942 10087 ft 289 kts 309°
2026-04-30 22:23 32.85205 -117.39968 10115 ft 330 kts 309°
2026-04-30 22:23 32.86666 -117.42240 10117 ft 345 kts 309°
2026-04-30 22:24 32.88066 -117.44420 10074 ft 327 kts 309°
2026-04-30 22:24 32.89418 -117.46520 10018 ft 317 kts 309°
2026-04-30 22:24 32.90765 -117.48610 9987 ft 318 kts 309°
2026-04-30 22:24 32.92113 -117.50707 9969 ft 319 kts 309°
2026-04-30 22:25 32.93461 -117.52805 9963 ft 319 kts 309°
2026-04-30 22:25 32.94808 -117.54902 9976 ft 319 kts 309°
2026-04-30 22:25 32.96157 -117.57004 9969 ft 319 kts 309°
2026-04-30 22:25 32.97502 -117.59102 9959 ft 319 kts 309°
2026-04-30 22:26 33.00194 -117.63304 9967 ft 319 kts 309°
2026-04-30 22:26 33.01544 -117.65404 9957 ft 319 kts 309°
2026-04-30 22:26 33.02893 -117.67510 9954 ft 319 kts 309°
2026-04-30 22:27 33.04250 -117.69595 9955 ft 318 kts 311°
2026-04-30 22:27 33.05698 -117.71596 9964 ft 318 kts 313°
2026-04-30 22:27 33.08763 -117.75343 9948 ft 316 kts 320°
2026-04-30 22:28 33.12098 -117.78773 9957 ft 317 kts 321°
2026-04-30 22:28 33.13793 -117.80497 9944 ft 316 kts 321°
2026-04-30 22:29 33.19134 -117.84973 9960 ft 315 kts 337°
2026-04-30 22:29 33.21158 -117.85957 9947 ft 314 kts 340°
2026-04-30 22:30 33.29549 -117.88723 9946 ft 313 kts 349°
2026-04-30 22:31 33.35952 -117.90303 9945 ft 312 kts 349°
2026-04-30 22:32 33.42239 -117.92311 9952 ft 312 kts 343°
2026-04-30 22:32 33.46367 -117.93814 9325 ft 302 kts 343°
2026-04-30 22:33 33.52040 -117.95882 7937 ft 266 kts 344°
2026-04-30 22:33 33.55427 -117.97114 7089 ft 244 kts 344°
2026-04-30 22:34 33.60182 -117.98844 6962 ft 235 kts 345°
2026-04-30 22:35 33.63271 -117.99971 6955 ft 233 kts 344°
2026-04-30 22:36 33.69477 -118.02237 6925 ft 233 kts 345°
2026-04-30 22:36 33.71022 -118.02804 6927 ft 232 kts 345°
2026-04-30 22:37 33.75672 -118.04502 6933 ft 233 kts 345°
2026-04-30 22:37 33.77252 -118.04865 6920 ft 231 kts
2026-04-30 22:37 33.79578 -118.02645 6052 ft 228 kts 77°
2026-04-30 22:38 33.78769 -117.99052 4851 ft 230 kts 118°
2026-04-30 22:38 33.77476 -117.95593 3744 ft 226 kts 102°
2026-04-30 22:39 33.77195 -117.93735 3650 ft 227 kts 97°
2026-04-30 22:39 33.76966 -117.88735 3577 ft 224 kts 90°
2026-04-30 22:40 33.76984 -117.83122 3565 ft 225 kts 107°
2026-04-30 22:41 33.75822 -117.77693 3548 ft 226 kts 79°
2026-04-30 22:41 33.77546 -117.74598 3570 ft 228 kts 67°
2026-04-30 22:42 33.74044 -117.70518 3636 ft 223 kts 188°
2026-04-30 22:43 33.70974 -117.71130 3603 ft 223 kts 191°
2026-04-30 22:43 33.67923 -117.71823 3561 ft 223 kts 191°
2026-04-30 22:44 33.64881 -117.72535 3559 ft 223 kts 191°
2026-04-30 22:45 33.58776 -117.73990 3562 ft 224 kts 191°
2026-04-30 22:45 33.55714 -117.74727 3553 ft 224 kts 191°
2026-04-30 22:46 33.52660 -117.75464 3575 ft 225 kts 191°
2026-04-30 22:47 33.46667 -117.77358 3547 ft 225 kts 224°
2026-04-30 22:47 33.46142 -117.80807 3675 ft 227 kts 300°
2026-04-30 22:48 33.48537 -117.83193 4092 ft 228 kts 329°
2026-04-30 22:49 33.52653 -117.86093 4715 ft 231 kts 331°
2026-04-30 22:49 33.56832 -117.88983 4945 ft 232 kts 331°
2026-04-30 22:50 33.62407 -117.92830 4891 ft 231 kts 333°